Tracking 25656 objects as of 21-May-2022
HD Live streaming from Space Station
objects crossing your sky now

SL-14 DEB

Track SL-14 DEB now!
10-day predictions


NORAD ID: 26014
Int'l Code: 1991-068Z
Perigee: 1,460.1 km
Apogee: 1,529.7 km
Inclination: 82.7 °
Period: 115.7 minutes
Semi major axis: 7865 km
RCS: 0.0989 m2 (small)
Launch date: September 28, 1991
Source: Commonwealth of Independent States (former USSR) (CIS)
Launch site: PLESETSK MISSILE AND SPACE COMPLEX (PKMTR)

Note: This is SATELLITE DEBRIS
aabbcc
Your satellite tracking list
Your tracking list is empty




NASA's NSSDC Master Catalog

Two Line Element Set (TLE):
1 26014U 91068Z   22140.45854888  .00000029  00000-0  13186-3 0  9999
2 26014  82.7400 151.3034 0044227 193.3862 296.5402 12.44461319 26724
Source of the keplerian elements: AFSPC